Location: Three Oaks Observatory
(31.1535°N, 83.5955°W)
Time: 19:33:35
(UTC-05:00)

NO-84 - Pass Details

Date: 23 October 2019
Orbit: 331 x 505 km, 55.0° (Epoch: 05 November)

Event Time Altitude Azimuth Distance (km) Brightness Sun altitude
Exits shadow 06:17:40 21° 341° (NNW) 1,174 ? -18.8°
Maximum altitude 06:19:58 47° 47° (NE) 662 ? -18.4°
Drops below altitude 10° 06:23:38 10° 122° (ESE) 1,666 ? -17.6°
Sets 06:25:48 0° 128° (SE) 2,520 ? -17.1°
